This is the latest recevied weather packets stored in our database for station/object IU2EVW-3. If no packets are shown the sender has not sent any weather packets the latest 1 day(s).
| Time | Temp. | Humidity | Pressure | Rain* | Wind** | Luminosity | Snow |
|---|---|---|---|---|---|---|---|
| 1788623887 | 31.67° C | 38% | 1014.5 hPa | - | - | - | - |
| 1788622686 | 31.67° C | 38% | 1014.5 hPa | - | - | - | - |
| 1788621485 | 31.67° C | 39% | 1014.5 hPa | - | - | - | - |
| 1788620283 | 31.67° C | 39% | 1014.6 hPa | - | - | - | - |
| 1788619082 | 31.67° C | 37% | 1014.5 hPa | - | - | - | - |
| 1788617881 | 31.67° C | 39% | 1014.7 hPa | - | - | - | - |
| 1788616680 | 31.67° C | 40% | 1014.9 hPa | - | - | - | - |
| 1788615478 | 31.11° C | 41% | 1015 hPa | - | - | - | - |
| 1788614277 | 31.11° C | 43% | 1015.3 hPa | - | - | - | - |
| 1788613076 | 31.11° C | 44% | 1015.5 hPa | - | - | - | - |
| 1788611875 | 30.56° C | 43% | 1015.6 hPa | - | - | - | - |
| 1788610674 | 30° C | 44% | 1015.8 hPa | - | - | - | - |
| 1788609472 | 30° C | 46% | 1015.9 hPa | - | - | - | - |
| 1788608271 | 30° C | 44% | 1016.1 hPa | - | - | - | - |
| 1788607070 | 29.44° C | 45% | 1016.3 hPa | - | - | - | - |
| 1788605869 | 28.89° C | 46% | 1016.4 hPa | - | - | - | - |
| 1788604668 | 28.33° C | 48% | 1016.5 hPa | - | - | - | - |
| 1788603466 | 28.33° C | 48% | 1016.5 hPa | - | - | - | - |
| 1788602265 | 27.78° C | 48% | 1016.5 hPa | - | - | - | - |
| 1788601064 | 27.22° C | 49% | 1016.7 hPa | - | - | - | - |
| 1788599863 | 26.67° C | 52% | 1016.8 hPa | - | - | - | - |
| 1788598661 | 26.11° C | 52% | 1016.9 hPa | - | - | - | - |
| 1788597460 | 26.67° C | 51% | 1016.5 hPa | - | - | - | - |
| 1788596259 | 26.67° C | 49% | 1016.4 hPa | - | - | - | - |
| 1788595058 | 25.56° C | 45% | 1016.4 hPa | - | - | - | - |
* Rain since midnight (hover to see other rain measurements)
** Current wind speed in m/s (hover to see current wind gust speed)